When you browse on this site, cookies collect data to enhance your experience and personalize the content and advertising you see.
Visit our Privacy Policy to learn more. By continuing to use the site, you agree to this use of cookies and data.
  • In Belgium
  • List of Countries
  • For 7 days
  • Water Temperature
  • Weather Map
  • Weather Widgets
  • user-avatar
    Login

    Hourly Weather Podvysokoe

    Today, 16 February, Sunday

    Time Temperature Precipitation Wind Pressure Humidity
    00:00 -4°C° 0 mm 1 mps 753 mmHg 97%
    01:00 -3°C° 0 mm 1 mps 753 mmHg 97%
    02:00 -2°C° 0 mm 1 mps 753 mmHg 99%
    03:00 -2°C° 0 mm 1 mps 753 mmHg 98%
    04:00 -3°C° 0 mm 2 mps 754 mmHg 98%
    05:00 -3°C° 0 mm 2 mps 754 mmHg 98%
    06:00 -3°C° 0 mm 2 mps 754 mmHg 97%
    07:00 -3°C° 0 mm 2 mps 754 mmHg 97%
    08:00 -3°C° 0 mm 2 mps 754 mmHg 95%
    09:00 -2°C° 0 mm 2 mps 754 mmHg 95%
    10:00 -2°C° 0 mm 3 mps 754 mmHg 95%
    11:00 -2°C° 0 mm 4 mps 753 mmHg 94%
    12:00 -2°C° 0 mm 4 mps 753 mmHg 95%
    13:00 -2°C° 0 mm 4 mps 753 mmHg 95%
    14:00 -1°C° 0 mm 3 mps 753 mmHg 95%
    15:00 -1°C° 0 mm 4 mps 753 mmHg 95%
    16:00 -1°C° 0 mm 5 mps 753 mmHg 95%
    17:00 -1°C° 0 mm 5 mps 753 mmHg 96%
    18:00 -2°C° 0 mm 6 mps 753 mmHg 95%
    19:00 -2°C° 0 mm 6 mps 752 mmHg 93%
    20:00 -2°C° 0 mm 6 mps 752 mmHg 92%
    21:00 -2°C° 0 mm 6 mps 752 mmHg 92%
    22:00 -2°C° 0 mm 7 mps 752 mmHg 92%
    23:00 -2°C° 0 mm 7 mps 751 mmHg 92%

    Tomorrow, 17 February, Monday

    Time Temperature Precipitation Wind Pressure Humidity
    00:00 -2°C° 0 mm 7 mps 751 mmHg 91%
    01:00 -3°C° 0 mm 7 mps 750 mmHg 90%
    02:00 -3°C° 0 mm 7 mps 750 mmHg 89%
    03:00 -4°C° 0 mm 8 mps 750 mmHg 86%
    04:00 -5°C° 0 mm 8 mps 749 mmHg 84%
    05:00 -5°C° 0 mm 8 mps 748 mmHg 81%
    06:00 -5°C° 0 mm 9 mps 748 mmHg 80%
    07:00 -4°C° 0 mm 9 mps 748 mmHg 79%
    08:00 -4°C° 0 mm 9 mps 748 mmHg 78%
    09:00 -4°C° 0 mm 9 mps 747 mmHg 77%
    10:00 -3°C° 0 mm 9 mps 747 mmHg 77%
    11:00 -3°C° 0 mm 10 mps 746 mmHg 76%
    12:00 -3°C° 0 mm 10 mps 746 mmHg 77%
    13:00 -2°C° 0 mm 10 mps 746 mmHg 77%
    14:00 -2°C° 0 mm 10 mps 746 mmHg 77%
    15:00 -3°C° 0 mm 10 mps 745 mmHg 77%
    16:00 -3°C° 0 mm 9 mps 745 mmHg 77%
    17:00 -3°C° 0 mm 9 mps 745 mmHg 77%
    18:00 -2°C° 0 mm 8 mps 745 mmHg 77%
    19:00 -1°C° 0 mm 8 mps 746 mmHg 78%
    20:00 -1°C° 0 mm 8 mps 746 mmHg 79%
    21:00 -1°C° 0 mm 8 mps 746 mmHg 80%
    22:00 -1°C° 0 mm 7 mps 746 mmHg 81%
    23:00 -1°C° 0 mm 7 mps 745 mmHg 82%

    Day after tomorrow, 18 February, Tuesday

    Time Temperature Precipitation Wind Pressure Humidity
    00:00 -1°C° 0 mm 7 mps 745 mmHg 84%
    01:00 -2°C° 0 mm 6 mps 745 mmHg 85%
    02:00 -2°C° 0 mm 6 mps 746 mmHg 87%
    03:00 -2°C° 0.3 mm 6 mps 745 mmHg 89%
    04:00 -2°C° 0.3 mm 6 mps 745 mmHg 90%
    05:00 -1°C° 0.3 mm 5 mps 744 mmHg 92%
    06:00 -1°C° 0.2 mm 5 mps 744 mmHg 92%
    07:00 -1°C° 0.2 mm 5 mps 744 mmHg 91%
    08:00 -1°C° 0.2 mm 5 mps 744 mmHg 91%
    09:00 -1°C° 0.1 mm 5 mps 744 mmHg 92%
    10:00 -1°C° 0.1 mm 5 mps 744 mmHg 94%
    11:00 -1°C° 0.1 mm 5 mps 743 mmHg 95%
    12:00 -1°C° 0.1 mm 5 mps 743 mmHg 96%
    13:00 -1°C° 0.1 mm 5 mps 743 mmHg 97%
    14:00 -1°C° 0.1 mm 5 mps 742 mmHg 98%
    15:00 -1°C° 0.1 mm 5 mps 742 mmHg 97%
    16:00 -1°C° 0.1 mm 5 mps 741 mmHg 95%
    17:00 -1°C° 0.1 mm 4 mps 741 mmHg 94%
    18:00 -1°C° 0.1 mm 4 mps 741 mmHg 94%
    19:00 -1°C° 0.1 mm 4 mps 741 mmHg 95%
    20:00 -1°C° 0.1 mm 4 mps 741 mmHg 95%
    21:00 -1°C° 0.2 mm 4 mps 741 mmHg 96%
    22:00 0°C° 0.2 mm 3 mps 741 mmHg 98%
    23:00 0°C° 0.2 mm 3 mps 741 mmHg 99%

    19 February, Wednesday

    Time Temperature Precipitation Wind Pressure Humidity
    00:00 0°C° 0 mm 3 mps 741 mmHg 99%
    01:00 0°C° 0 mm 3 mps 741 mmHg 99%
    02:00 +1°C° 0 mm 2 mps 741 mmHg 99%
    03:00 0°C° 0 mm 3 mps 741 mmHg 98%
    04:00 -1°C° 0 mm 3 mps 741 mmHg 98%
    05:00 -1°C° 0 mm 3 mps 741 mmHg 97%
    06:00 -2°C° 0 mm 4 mps 742 mmHg 97%
    07:00 -2°C° 0 mm 4 mps 742 mmHg 97%
    08:00 -1°C° 0 mm 5 mps 742 mmHg 97%
    09:00 -1°C° 0 mm 4 mps 743 mmHg 98%
    10:00 -1°C° 0 mm 4 mps 743 mmHg 99%
    11:00 -1°C° 0 mm 4 mps 743 mmHg 99%
    12:00 -1°C° 0 mm 4 mps 743 mmHg 98%
    13:00 -1°C° 0 mm 4 mps 743 mmHg 96%
    14:00 -1°C° 0 mm 4 mps 744 mmHg 95%
    15:00 0°C° 0 mm 3 mps 743 mmHg 93%
    16:00 -1°C° 0 mm 3 mps 743 mmHg 92%
    17:00 -1°C° 0 mm 3 mps 743 mmHg 90%
    18:00 -1°C° 0 mm 3 mps 744 mmHg 90%
    19:00 -1°C° 0 mm 2 mps 744 mmHg 90%
    20:00 -1°C° 0 mm 2 mps 744 mmHg 90%
    21:00 -1°C° 0 mm 2 mps 744 mmHg 89%
    22:00 +1°C° 0 mm 1 mps 744 mmHg 88%
    23:00 +1°C° 0 mm 1 mps 744 mmHg 87%

    20 February, Thursday

    Time Temperature Precipitation Wind Pressure Humidity
    00:00 +1°C° 0 mm 1 mps 744 mmHg 88%
    01:00 -1°C° 0 mm 2 mps 745 mmHg 89%
    02:00 -1°C° 0 mm 2 mps 745 mmHg 89%
    03:00 -1°C° 0 mm 2 mps 745 mmHg 91%
    04:00 -1°C° 0 mm 2 mps 745 mmHg 93%
    05:00 -2°C° 0 mm 2 mps 745 mmHg 95%
    06:00 -2°C° 0.1 mm 2 mps 745 mmHg 95%
    07:00 -2°C° 0.1 mm 2 mps 745 mmHg 96%
    08:00 -2°C° 0.1 mm 2 mps 745 mmHg 97%
    09:00 -2°C° 0 mm 3 mps 745 mmHg 97%
    10:00 -1°C° 0 mm 3 mps 745 mmHg 98%
    11:00 -1°C° 0 mm 3 mps 745 mmHg 99%
    12:00 -1°C° 0 mm 3 mps 745 mmHg 99%
    13:00 -1°C° 0 mm 3 mps 745 mmHg 99%
    14:00 -1°C° 0 mm 3 mps 745 mmHg 99%
    15:00 -1°C° 0 mm 3 mps 745 mmHg 98%
    16:00 -1°C° 0 mm 3 mps 745 mmHg 97%
    17:00 -1°C° 0 mm 2 mps 745 mmHg 96%
    18:00 -1°C° 0 mm 2 mps 745 mmHg 96%
    19:00 -1°C° 0 mm 2 mps 746 mmHg 95%
    20:00 -1°C° 0 mm 2 mps 746 mmHg 95%
    21:00 -1°C° 0 mm 2 mps 746 mmHg 95%
    22:00 -1°C° 0 mm 2 mps 746 mmHg 95%
    23:00 -1°C° 0 mm 2 mps 746 mmHg 95%

    21 February, Friday

    Time Temperature Precipitation Wind Pressure Humidity
    00:00 -1°C° 0 mm 2 mps 746 mmHg 95%
    01:00 -1°C° 0 mm 2 mps 746 mmHg 96%
    02:00 +1°C° 0 mm 1 mps 746 mmHg 96%
    03:00 +1°C° 0 mm 1 mps 746 mmHg 96%
    04:00 +1°C° 0 mm 1 mps 746 mmHg 96%
    05:00 +1°C° 0 mm 1 mps 746 mmHg 97%
    06:00 +1°C° 0 mm 1 mps 746 mmHg 97%
    07:00 +1°C° 0 mm 1 mps 746 mmHg 97%
    08:00 -1°C° 0 mm 2 mps 746 mmHg 97%
    15:00 +1°C° 0 mm 1 mps 746 mmHg 98%
    16:00 0°C° 0 mm 1 mps 746 mmHg 96%
    17:00 0°C° 0 mm 1 mps 746 mmHg 95%
    18:00 0°C° 0 mm 1 mps 746 mmHg 95%
    19:00 -1°C° 0 mm 1 mps 746 mmHg 95%
    20:00 -1°C° 0 mm 1 mps 746 mmHg 95%
    21:00 -1°C° 0 mm 1 mps 746 mmHg 95%
    22:00 -1°C° 0 mm 1 mps 746 mmHg 95%
    23:00 -2°C° 0 mm 1 mps 746 mmHg 95%
    Show more